Date String (YYYY-MM-DD hh:mm:ss) UTC,Instrument flags,Ambient pressure (hPa),Sample flow (lpm),Bypass flow (lpm),Sample temperature (°C),Ambient temperature (°C),ASC tube jacket temperature (°C),LED temperature (°C),Box temperature (°C),Sample RH (%),Span deviation,Mass concentration (μg/m³),Mass concentration (μg/m³),Mass concentration (μg/m³)
DateTimeUTC,F1_M11,P_M11,Q1_M11,Q2_M11,T1_M11,T2_M11,T3_M11,T4_M11,T5_M11,U1_M11,ZSPAN_M11,X0_M11,X2_M11,X1_M11
2022-05-17 16:00:00,,0822.7,4.99,0.00,29.4,28.1,00.0,38.4,31.3,16.0,0000.0,0020.52,0005.76,0003.95
2022-05-17 16:01:00,,0822.8,4.99,0.00,29.5,28.3,00.0,38.4,31.3,15.6,0000.0,0021.62,0005.79,0004.02
2022-05-17 16:02:00,,0822.8,4.99,0.00,29.5,28.4,00.0,38.5,31.3,15.4,0000.0,0021.17,0005.79,0004.07
2022-05-17 16:03:00,,0822.8,5.00,0.00,29.5,28.5,00.0,38.5,31.4,15.7,0000.0,0021.29,0005.78,0004.08
2022-05-17 16:04:00,,0822.8,5.00,0.00,29.6,28.6,00.0,38.5,31.4,15.9,0000.0,0021.39,0005.77,0004.09
2022-05-17 16:05:00,,0822.8,4.99,0.00,29.6,27.6,00.0,38.5,31.3,16.0,0000.0,0021.54,0005.73,0004.12
2022-05-17 16:06:00,,0822.8,5.01,0.00,29.5,25.7,00.0,38.5,31.0,16.1,0000.0,0021.58,0005.82,0004.15
2022-05-17 16:07:00,,0822.8,5.00,0.00,29.4,25.6,00.0,38.4,30.9,15.5,0000.0,0022.19,0005.81,0004.13
2022-05-17 16:08:00,,0822.9,5.00,0.00,29.4,26.1,00.0,38.4,31.0,15.7,0000.0,0022.64,0005.80,0004.09
2022-05-17 16:09:00,,0822.9,5.01,0.00,29.3,26.5,00.0,38.4,31.0,15.9,0000.0,0022.77,0005.76,0004.05
2022-05-17 16:10:00,,0823.0,5.00,0.00,29.3,26.9,00.0,38.4,31.1,15.6,0000.0,0021.35,0005.71,0004.02
2022-05-17 16:11:00,,0823.0,4.99,0.00,29.4,27.3,00.0,38.4,31.1,16.7,0000.0,0020.62,0005.62,0003.97
2022-05-17 16:12:00,,0822.9,5.01,0.00,29.4,27.5,00.0,38.4,31.2,15.9,0000.0,0019.64,0005.48,0003.89
2022-05-17 16:13:00,,0822.9,5.00,0.00,29.4,27.8,00.0,38.4,31.2,16.4,0000.0,0019.99,0005.41,0003.83
2022-05-17 16:14:00,,0822.9,5.00,0.00,29.4,27.9,00.0,38.4,31.3,17.2,0000.0,0020.68,0005.39,0003.82
2022-05-17 16:15:00,,0822.9,5.00,0.00,29.4,28.1,00.0,38.4,31.2,17.0,0000.0,0019.94,0005.41,0003.82
2022-05-17 16:16:00,,0822.9,5.00,0.00,29.5,28.2,00.0,38.4,31.3,17.5,0000.0,0020.58,0005.54,0003.83
2022-05-17 16:17:00,,0823.0,5.00,0.00,29.5,27.8,00.0,38.4,31.3,17.2,0000.0,0020.30,0005.54,0003.81
2022-05-17 16:18:00,,0823.0,4.99,0.00,29.4,25.8,00.0,38.4,31.0,16.9,0000.0,0019.63,0005.58,0003.81
2022-05-17 16:19:00,,0823.0,5.01,0.00,29.3,25.1,00.0,38.3,30.8,16.7,0000.0,0018.71,0005.55,0003.82
2022-05-17 16:20:00,,0823.0,5.00,0.00,29.3,25.7,00.0,38.3,30.8,16.9,0000.0,0018.51,0005.54,0003.79
2022-05-17 16:21:00,,0822.9,4.99,0.00,29.2,26.1,00.0,38.3,30.7,17.6,0000.0,0019.23,0005.54,0003.78
2022-05-17 16:22:00,,0823.0,5.00,0.00,29.2,26.5,00.0,38.3,30.8,17.1,0000.0,0020.29,0005.59,0003.78
2022-05-17 16:23:00,,0823.0,5.01,0.00,29.2,26.9,00.0,38.2,30.8,17.2,0000.0,0021.37,0005.71,0003.80
2022-05-17 16:24:00,,0823.0,5.00,0.00,29.2,27.2,00.0,38.2,30.9,16.8,0000.0,0021.47,0005.76,0003.82
2022-05-17 16:25:00,,0823.0,4.99,0.00,29.2,27.4,00.0,38.2,31.0,17.0,0000.0,0021.25,0005.78,0003.84
2022-05-17 16:26:00,,0823.1,4.99,0.00,29.2,27.6,00.0,38.2,31.0,17.9,0000.0,0022.59,0005.76,0003.83
2022-05-17 16:27:00,,0823.0,5.00,0.00,29.2,27.7,00.0,38.2,31.0,17.3,0000.0,0022.00,0005.73,0003.83
2022-05-17 16:28:00,,0823.0,5.00,0.00,29.2,27.8,00.0,38.2,31.0,17.4,0000.0,0022.27,0005.70,0003.84
2022-05-17 16:29:00,,0823.0,5.00,0.00,29.2,27.8,00.0,38.2,31.0,17.3,0000.0,0022.30,0005.70,0003.86
2022-05-17 16:30:00,,0822.9,4.98,0.00,29.2,27.8,00.0,38.2,31.0,17.4,0000.0,0024.16,0005.78,0003.88
2022-05-17 16:31:00,,0823.0,4.99,0.00,29.2,27.9,00.0,38.3,31.0,17.3,0000.0,0024.58,0005.86,0003.90
2022-05-17 16:32:00,,0822.9,5.00,0.00,29.2,27.9,00.0,38.2,31.0,17.0,0000.0,0024.63,0005.90,0003.93
2022-05-17 16:33:00,,0822.9,5.01,0.00,29.2,27.9,00.0,38.2,31.0,17.1,0000.0,0024.36,0005.91,0003.94
2022-05-17 16:34:00,,0823.0,5.00,0.00,29.2,28.0,00.0,38.3,31.1,17.4,0000.0,0024.79,0005.88,0003.95
2022-05-17 16:35:00,,0822.9,4.99,0.00,29.3,28.1,00.0,38.3,31.1,17.9,0000.0,0025.60,0005.85,0003.94
2022-05-17 16:36:00,,0822.9,5.00,0.00,29.3,28.1,00.0,38.3,31.2,17.4,0000.0,0025.66,0005.85,0003.93
2022-05-17 16:37:00,,0822.9,5.02,0.00,29.3,28.1,00.0,38.3,31.2,17.1,0000.0,0024.20,0005.90,0003.93
2022-05-17 16:38:00,,0822.9,5.00,0.00,29.3,26.4,00.0,38.3,30.9,16.9,0000.0,0023.20,0005.84,0003.93
2022-05-17 16:39:00,,0822.9,5.00,0.00,29.2,25.2,00.0,38.2,30.5,17.2,0000.0,0023.36,0005.91,0003.94
2022-05-17 16:40:00,,0823.0,5.00,0.00,29.1,25.8,00.0,38.2,30.6,17.6,0000.0,0023.24,0006.02,0003.94
2022-05-17 16:41:00,,0822.9,4.99,0.00,29.1,26.2,00.0,38.2,30.6,17.8,0000.0,0022.09,0006.08,0003.95
2022-05-17 16:42:00,,0823.0,5.01,0.00,29.0,26.6,00.0,38.2,30.7,18.3,0000.0,0022.38,0006.17,0003.96
2022-05-17 16:43:00,,0823.0,4.99,0.00,29.1,26.9,00.0,38.2,30.7,18.1,0000.0,0022.69,0006.27,0003.97
2022-05-17 16:44:00,,0823.0,4.99,0.00,29.1,27.2,00.0,38.2,30.8,18.1,0000.0,0023.32,0006.41,0003.99
2022-05-17 16:45:00,,0823.0,5.00,0.00,29.1,27.5,00.0,38.2,31.0,18.3,0000.0,0022.53,0006.58,0004.02
2022-05-17 16:46:00,,0823.0,5.00,0.00,29.2,27.7,00.0,38.2,31.1,17.8,0000.0,0022.31,0006.69,0004.04
2022-05-17 16:47:00,,0823.0,5.01,0.00,29.2,27.8,00.0,38.2,31.1,18.1,0000.0,0022.61,0006.74,0004.07
2022-05-17 16:48:00,,0823.0,5.00,0.00,29.2,26.2,00.0,38.1,31.1,18.3,0000.0,0023.79,0006.86,0004.09
2022-05-17 16:49:00,,0823.0,5.01,0.00,29.1,24.7,00.0,38.1,30.9,18.2,0000.0,0025.26,0007.02,0004.10
2022-05-17 16:50:00,,0822.9,4.99,0.00,29.1,25.2,00.0,38.1,30.8,17.7,0000.0,0026.82,0007.14,0004.12
2022-05-17 16:51:00,,0822.9,5.01,0.00,29.1,25.7,00.0,38.1,30.9,18.0,0000.0,0028.48,0007.15,0004.11
2022-05-17 16:52:00,,0822.9,4.99,0.00,29.1,26.1,00.0,38.1,30.9,17.4,0000.0,0029.29,0007.18,0004.11
2022-05-17 16:53:00,,0822.9,5.00,0.00,29.1,26.5,00.0,38.1,30.9,17.4,0000.0,0029.65,0007.21,0004.11
2022-05-17 16:54:00,,0822.9,5.01,0.00,29.1,26.8,00.0,38.1,31.0,17.3,0000.0,0030.11,0007.17,0004.12
2022-05-17 16:55:00,,0823.0,4.99,0.00,29.1,27.2,00.0,38.1,31.0,17.7,0000.0,0030.66,0007.16,0004.12
2022-05-17 16:56:00,,0823.0,4.99,0.00,29.1,27.4,00.0,38.1,31.1,17.4,0000.0,0031.21,0007.12,0004.10
2022-05-17 16:57:00,,0823.0,5.01,0.00,29.2,27.6,00.0,38.1,31.1,17.3,0000.0,0030.30,0007.08,0004.10
2022-05-17 16:58:00,,0823.1,5.01,0.00,29.2,27.8,00.0,38.1,31.2,16.6,0000.0,0029.24,0007.17,0004.11
2022-05-17 16:59:00,,0823.0,5.00,0.00,29.2,27.9,00.0,38.1,31.2,17.0,0000.0,0028.45,0007.17,0004.11
